This is the latest recevied weather packets stored in our database for station/object KK7AZD-13. If no packets are shown the sender has not sent any weather packets the latest 10 day(s).
| Time | Temp. | Humidity | Pressure | Rain* | Wind** | Luminosity | Snow |
|---|---|---|---|---|---|---|---|
| 1777668734 | 21.67° C | 30% | 1016.2 hPa | 0 mm | - | 858 W/m² | - |
| 1777667835 | 20.56° C | 35% | 1016.5 hPa | 0 mm | - | 604 W/m² | - |
| 1777666932 | 20° C | 35% | 1016.5 hPa | 0 mm | - | 656 W/m² | - |
| 1777666028 | 19.44° C | 37% | 1017 hPa | 0 mm | - | 695 W/m² | - |
| 1777665125 | 20° C | 37% | 1017 hPa | 0 mm | - | 642 W/m² | - |
| 1777664219 | 18.89° C | 36% | 1017.4 hPa | 0 mm | - | 557 W/m² | - |
| 1777663318 | 18.33° C | 40% | 1017.3 hPa | 0 mm | - | 810 W/m² | - |
| 1777662414 | 17.22° C | 42% | 1017.6 hPa | 0 mm | - | 516 W/m² | - |
| 1777661514 | 16.67° C | 42% | 1017.9 hPa | 0 mm | - | 710 W/m² | - |
| 1777660613 | 16.11° C | 43% | 1018.1 hPa | 0 mm | - | 768 W/m² | - |
| 1777659709 | 16.11° C | 42% | 1018 hPa | 0 mm | - | 796 W/m² | - |
| 1777658807 | 15.56° C | 44% | 1018.3 hPa | 0 mm | - | 557 W/m² | - |
| 1777657903 | 15° C | 45% | 1018.3 hPa | 0 mm | - | 693 W/m² | - |
| 1777657000 | 15° C | 46% | 1018.4 hPa | 0 mm | - | 640 W/m² | - |
| 1777656100 | 14.44° C | 46% | 1017.9 hPa | 0 mm | - | 591 W/m² | - |
| 1777655196 | 15.56° C | 46% | 1018.2 hPa | 0 mm | - | 542 W/m² | - |
| 1777654293 | 14.44° C | 47% | 1018.3 hPa | 0 mm | - | 580 W/m² | - |
| 1777653390 | 13.33° C | 53% | 1018.3 hPa | 0 mm | - | 500 W/m² | - |
| 1777652486 | 12.78° C | 50% | 1018.4 hPa | 0 mm | - | 475 W/m² | - |
| 1777651583 | 11.67° C | 51% | 1018.4 hPa | 0 mm | - | 382 W/m² | - |
| 1777650679 | 11.11° C | 52% | 1018.7 hPa | 0 mm | - | 315 W/m² | - |
| 1777649776 | 10.56° C | 56% | 1018.4 hPa | 0 mm | - | 240 W/m² | - |
| 1777648873 | 9.44° C | 59% | 1018.4 hPa | 0 mm | - | 189 W/m² | - |
| 1777647968 | 8.89° C | 60% | 1018.4 hPa | 0 mm | - | 148 W/m² | - |
| 1777647065 | 8.89° C | 60% | 1018.6 hPa | 0 mm | - | 158 W/m² | - |
* Rain latest hour (hover to see other rain measurements)
** Current wind speed in m/s (hover to see current wind gust speed)